スペースウォッチ彗星

283P/Spacewatch (1996)

English version
Home page
Updated on September 11, 2013

---------------------------------------------------------------------

・ プロフィール

・ 軌道要素

Epoch 1996 June 6.0 TT = JDT 2450240.5
T 1996 June 4.19029 TT                                  MPC
q   2.1116282            (2000.0)            P               Q
n   0.11794721     Peri.   21.13423     -0.99533478     +0.05465023
a   4.1179172      Node   161.45807     -0.06739493     -0.98354081
e   0.4872096      Incl.   14.47966     +0.06904054     -0.17222318
P   8.36
From 63 observations 1996 Feb. 17-2013 May 1, mean residual 0".5.

・ 光度変化

        m1 = 11.0 + 5 logΔ + 20.0 log r(t - 100)

---------------------------------------------------------------------

軌道要素はM.P.E.C. 2013-J10に掲載されたものです。
光度グラフはComet for Windowsで作成したものです。

---------------------------------------------------------------------

Copyright(C) Seiichi Yoshida (comet@aerith.net). All rights reserved.